Williston, ND

11:53 AM CDT on October 14, 2019 (GMT -0500)
Sloulin International

Weather History for KISN - August, 2019

Change the Weather History Date:

Tuesday, August 27, 2019

  Actual Average Record
Temperature  
Mean Temperature 60 °F 66 °F  
Max Temperature 70 °F 81 °F 100 °F (1991)
Min Temperature 50 °F 51 °F 35 °F (1982)
Degree Days  
Heating Degree Days 5 3  
Month to date heating degree days 24 36  
Since 1 June heating degree days 109 180  
Since 1 July heating degree days 39 60  
Cooling Degree Days 0 3  
Month to date cooling degree days 132 154  
Year to date cooling degree days 376 417  
Since 1 June cooling degree days 370 404  
Growing Degree Days 10 (Base 50)    
Moisture  
Dew Point 45 °F    
Average Humidity 61    
Maximum Humidity 77    
Minimum Humidity 44    
Precipitation  
Precipitation 0.00 in 0.05 in 1.50 in (1903)
Month to date precipitation 1.96 1.28  
Year to date precipitation 11.62 10.95  
Sea Level Pressure  
Sea Level Pressure 29.99 in    
Wind  
Wind Speed 16 mph (WNW)    
Max Wind Speed 28 mph    
Max Gust Speed 44 mph    
Visibility 10 miles    
Events      
T = Trace of Precipitation, MM = Missing Value Source: NWS Daily Summary

Daily Weather History Graph

Daily Weather History Graph

Search for Another Location

Airport or City:

Astronomy

Aug. 27, 2019 Rise Set
Actual Time 7:05 AM CDT 8:46 PM CDT
Civil Twilight 6:32 AM CDT 9:18 PM CDT
Nautical Twilight 5:52 AM CDT 9:58 PM CDT
Astronomical Twilight 5:08 AM CDT 10:42 PM CDT
Moon 3:14 AM CDT (8/27) 7:24 PM CDT (8/27)
Length of Visible Light 14h 46m
Length of Day
13h 40m
Waning Crescent, 11% of the Moon is Illuminated
Aug 27
Waning Crescent
Aug 30
New
Sep 5
First Quarter
Sep 13
Full
Sep 21
Last Quarter

Hourly Weather History & Observations

Time (CDT) Temp. Dew Point Humidity Pressure Visibility Wind Dir Wind Speed Gust Speed Precip Events Conditions
12:52 AM 55.9 °F 39.9 °F 55% 29.94 in 10.0 mi WNW 17.3 mph - N/A   Clear
1:52 AM 55.0 °F 39.9 °F 57% 29.94 in 10.0 mi West 15.0 mph - N/A   Clear
2:52 AM 53.1 °F 39.9 °F 61% 29.95 in 10.0 mi WNW 15.0 mph - N/A   Clear
3:52 AM 52.0 °F 41.0 °F 66% 29.95 in 10.0 mi WNW 16.1 mph - N/A   Clear
4:52 AM 51.1 °F 42.1 °F 71% 29.96 in 10.0 mi West 16.1 mph - N/A   Clear
5:52 AM 51.1 °F 42.1 °F 71% 29.96 in 10.0 mi West 17.3 mph - N/A   Clear
6:52 AM 50.0 °F 43.0 °F 77% 29.97 in 10.0 mi West 15.0 mph 29.9 mph N/A   Clear
7:52 AM 50.0 °F 43.0 °F 77% 29.98 in 10.0 mi West 16.1 mph 31.1 mph N/A   Clear
8:40 AM 53.1 °F 44.1 °F 71% 29.99 in 10.0 mi West 19.6 mph 31.1 mph N/A   Mostly Cloudy
8:52 AM 53.1 °F 44.1 °F 71% 30.00 in 10.0 mi West 19.6 mph 33.4 mph N/A   Mostly Cloudy
9:30 AM 54.0 °F 45.0 °F 72% 29.99 in 10.0 mi West 18.4 mph 27.6 mph N/A   Overcast
9:52 AM 55.9 °F 46.0 °F 69% 29.99 in 10.0 mi WNW 19.6 mph 31.1 mph N/A   Overcast
10:37 AM 57.9 °F 46.9 °F 67% 30.00 in 10.0 mi WNW 19.6 mph 34.5 mph N/A   Mostly Cloudy
10:45 AM 60.1 °F 46.9 °F 62% 29.99 in 10.0 mi WNW 21.9 mph 33.4 mph N/A   Mostly Cloudy
10:52 AM 61.0 °F 46.9 °F 60% 30.00 in 10.0 mi WNW 21.9 mph 33.4 mph N/A   Scattered Clouds
11:02 AM 60.1 °F 46.9 °F 62% 30.00 in 10.0 mi WNW 23.0 mph 40.3 mph N/A   Mostly Cloudy
11:28 AM 61.0 °F 46.9 °F 60% 30.00 in 10.0 mi WNW 21.9 mph 34.5 mph N/A   Mostly Cloudy
11:36 AM 63.0 °F 48.0 °F 58% 30.00 in 10.0 mi WNW 21.9 mph 38.0 mph N/A   Mostly Cloudy
11:52 AM 60.1 °F 46.9 °F 62% 30.01 in 10.0 mi WNW 21.9 mph 36.8 mph N/A   Overcast
12:34 PM 62.1 °F 48.0 °F 60% 30.01 in 10.0 mi WNW 19.6 mph 36.8 mph N/A   Overcast
12:52 PM 63.0 °F 48.0 °F 58% 30.01 in 10.0 mi WNW 21.9 mph 38.0 mph N/A   Overcast
1:52 PM 66.0 °F 48.0 °F 52% 30.00 in 10.0 mi WNW 19.6 mph 32.2 mph N/A   Overcast
2:52 PM 68.0 °F 48.0 °F 49% 29.99 in 10.0 mi NW 20.7 mph 34.5 mph N/A   Mostly Cloudy
3:52 PM 69.1 °F 46.0 °F 44% 29.99 in 10.0 mi WNW 21.9 mph 36.8 mph N/A   Mostly Cloudy
4:52 PM 70.0 °F 46.0 °F 42% 29.99 in 10.0 mi NW 20.7 mph 36.8 mph N/A   Mostly Cloudy
5:52 PM 66.9 °F 45.0 °F 45% 30.00 in 10.0 mi NW 19.6 mph 35.7 mph N/A   Mostly Cloudy
6:52 PM 66.9 °F 46.0 °F 47% 30.01 in 10.0 mi WNW 19.6 mph 34.5 mph N/A   Clear
7:52 PM 64.9 °F 46.0 °F 50% 30.01 in 10.0 mi WNW 12.7 mph 28.8 mph N/A   Clear
8:52 PM 60.1 °F 46.0 °F 60% 30.01 in 10.0 mi WNW 9.2 mph - N/A   Clear
9:52 PM 55.9 °F 46.0 °F 69% 30.03 in 10.0 mi WNW 9.2 mph - N/A   Clear
10:52 PM 54.0 °F 46.0 °F 75% 30.02 in 10.0 mi NW 5.8 mph - N/A   Clear
11:52 PM 53.1 °F 46.0 °F 77% 30.02 in 10.0 mi WNW 8.1 mph - N/A   Clear